When you browse on this site, cookies collect data to enhance your experience and personalize the content and advertising you see.
Visit our Privacy Policy to learn more. By continuing to use the site, you agree to this use of cookies and data.
  • In Austria
  • List of Countries
  • For 7 days
  • Water Temperature
  • Weather Map
  • News
  • Weather Widgets
  • user-avatar
    Login

    Hourly Weather Fier

    Today, 24 January, Friday

    Time Temperature Precipitation Wind Pressure Humidity
    00:00 +7°C° 0 mm 3 mps 770 mmHg 52%
    01:00 +7°C° 0 mm 2 mps 770 mmHg 52%
    02:00 +7°C° 0 mm 3 mps 770 mmHg 51%
    03:00 +7°C° 0 mm 3 mps 770 mmHg 50%
    04:00 +7°C° 0 mm 3 mps 770 mmHg 49%
    05:00 +7°C° 0 mm 3 mps 771 mmHg 49%
    06:00 +5°C° 0 mm 3 mps 771 mmHg 50%
    07:00 +5°C° 0 mm 3 mps 772 mmHg 50%
    08:00 +8°C° 0 mm 3 mps 772 mmHg 49%
    09:00 +10°C° 0 mm 3 mps 772 mmHg 48%
    10:00 +12°C° 0 mm 3 mps 772 mmHg 47%
    11:00 +13°C° 0 mm 3 mps 771 mmHg 46%
    12:00 +13°C° 0 mm 3 mps 771 mmHg 46%
    13:00 +14°C° 0 mm 3 mps 771 mmHg 45%
    14:00 +14°C° 0 mm 3 mps 770 mmHg 50%
    15:00 +13°C° 0 mm 3 mps 770 mmHg 55%
    16:00 +13°C° 0 mm 3 mps 770 mmHg 59%
    17:00 +12°C° 0 mm 3 mps 770 mmHg 62%
    18:00 +11°C° 0 mm 3 mps 770 mmHg 64%
    19:00 +10°C° 0 mm 3 mps 770 mmHg 66%
    20:00 +9°C° 0 mm 3 mps 770 mmHg 68%
    21:00 +9°C° 0 mm 3 mps 770 mmHg 71%
    22:00 +9°C° 0 mm 3 mps 770 mmHg 73%
    23:00 +9°C° 0 mm 3 mps 770 mmHg 75%

    Tomorrow, 25 January, Saturday

    Time Temperature Precipitation Wind Pressure Humidity
    00:00 +8°C° 0 mm 3 mps 770 mmHg 77%
    01:00 +8°C° 0 mm 3 mps 769 mmHg 79%
    02:00 +8°C° 0 mm 3 mps 769 mmHg 79%
    03:00 +8°C° 0 mm 3 mps 769 mmHg 79%
    04:00 +8°C° 0 mm 3 mps 769 mmHg 79%
    05:00 +8°C° 0 mm 3 mps 769 mmHg 79%
    06:00 +7°C° 0 mm 4 mps 769 mmHg 78%
    07:00 +7°C° 0 mm 4 mps 769 mmHg 77%
    08:00 +9°C° 0 mm 3 mps 769 mmHg 75%
    09:00 +11°C° 0 mm 3 mps 769 mmHg 72%
    10:00 +12°C° 0 mm 3 mps 769 mmHg 70%
    11:00 +13°C° 0 mm 4 mps 768 mmHg 68%
    12:00 +13°C° 0 mm 4 mps 768 mmHg 66%
    13:00 +14°C° 0 mm 4 mps 767 mmHg 64%
    14:00 +14°C° 0 mm 4 mps 767 mmHg 68%
    15:00 +13°C° 0 mm 4 mps 767 mmHg 71%
    16:00 +13°C° 0 mm 4 mps 767 mmHg 74%
    17:00 +12°C° 0 mm 3 mps 767 mmHg 76%
    18:00 +12°C° 0 mm 3 mps 767 mmHg 78%
    19:00 +11°C° 0 mm 3 mps 767 mmHg 79%
    20:00 +11°C° 0 mm 3 mps 767 mmHg 80%
    21:00 +11°C° 0 mm 3 mps 767 mmHg 80%
    22:00 +11°C° 0 mm 3 mps 767 mmHg 80%
    23:00 +11°C° 0 mm 3 mps 767 mmHg 80%

    Day after tomorrow, 26 January, Sunday

    Time Temperature Precipitation Wind Pressure Humidity
    00:00 +11°C° 0 mm 3 mps 767 mmHg 79%
    01:00 +11°C° 0 mm 3 mps 767 mmHg 79%
    02:00 +10°C° 0 mm 3 mps 767 mmHg 79%
    03:00 +10°C° 0 mm 3 mps 766 mmHg 79%
    04:00 +10°C° 0 mm 3 mps 766 mmHg 79%
    05:00 +10°C° 0 mm 3 mps 766 mmHg 78%
    06:00 +10°C° 0 mm 3 mps 766 mmHg 78%
    07:00 +10°C° 0 mm 3 mps 766 mmHg 77%
    08:00 +11°C° 0 mm 3 mps 766 mmHg 74%
    09:00 +12°C° 0 mm 3 mps 766 mmHg 70%
    10:00 +13°C° 0 mm 3 mps 766 mmHg 66%
    11:00 +15°C° 0 mm 2 mps 765 mmHg 65%
    12:00 +15°C° 0 mm 2 mps 765 mmHg 63%
    13:00 +16°C° 0 mm 2 mps 764 mmHg 62%
    14:00 +15°C° 0.1 mm 2 mps 764 mmHg 65%
    15:00 +15°C° 0.1 mm 2 mps 763 mmHg 68%
    16:00 +14°C° 0.1 mm 2 mps 763 mmHg 72%
    17:00 +14°C° 0.1 mm 2 mps 763 mmHg 74%
    18:00 +13°C° 0.1 mm 2 mps 763 mmHg 76%
    19:00 +13°C° 0.1 mm 2 mps 763 mmHg 78%
    20:00 +12°C° 0.1 mm 2 mps 763 mmHg 78%
    21:00 +12°C° 0.1 mm 2 mps 763 mmHg 79%
    22:00 +12°C° 0.1 mm 2 mps 763 mmHg 79%
    23:00 +12°C° 0.3 mm 2 mps 762 mmHg 79%

    27 January, Monday

    Time Temperature Precipitation Wind Pressure Humidity
    00:00 +11°C° 0.3 mm 3 mps 762 mmHg 79%
    01:00 +11°C° 0.3 mm 3 mps 762 mmHg 78%
    02:00 +12°C° 0.4 mm 2 mps 762 mmHg 79%
    03:00 +12°C° 0.4 mm 2 mps 761 mmHg 79%
    04:00 +12°C° 0.4 mm 2 mps 761 mmHg 80%
    05:00 +12°C° 1 mm 2 mps 761 mmHg 84%
    06:00 +12°C° 1 mm 2 mps 761 mmHg 88%
    07:00 +10°C° 1 mm 2 mps 761 mmHg 92%
    08:00 +11°C° 0.7 mm 3 mps 761 mmHg 90%
    09:00 +11°C° 0.7 mm 3 mps 761 mmHg 89%
    10:00 +11°C° 0.7 mm 3 mps 761 mmHg 87%
    11:00 +12°C° 0.2 mm 2 mps 761 mmHg 85%
    12:00 +12°C° 0.2 mm 2 mps 760 mmHg 84%
    13:00 +12°C° 0.2 mm 1 mps 760 mmHg 82%
    14:00 +12°C° 0.2 mm 1 mps 760 mmHg 84%
    15:00 +12°C° 0.2 mm 2 mps 760 mmHg 86%
    16:00 +12°C° 0.2 mm 2 mps 760 mmHg 88%
    17:00 +10°C° 0 mm 2 mps 760 mmHg 88%
    18:00 +10°C° 0 mm 2 mps 761 mmHg 89%
    19:00 +10°C° 0 mm 3 mps 761 mmHg 90%
    20:00 +10°C° 0.1 mm 2 mps 761 mmHg 90%
    21:00 +10°C° 0.1 mm 2 mps 761 mmHg 90%
    22:00 +9°C° 0.1 mm 2 mps 762 mmHg 90%
    23:00 +10°C° 0 mm 2 mps 762 mmHg 90%

    28 January, Tuesday

    Time Temperature Precipitation Wind Pressure Humidity
    00:00 +10°C° 0 mm 2 mps 762 mmHg 89%
    01:00 +10°C° 0 mm 2 mps 762 mmHg 88%
    02:00 +10°C° 0.1 mm 2 mps 762 mmHg 88%
    03:00 +10°C° 0.1 mm 2 mps 762 mmHg 88%
    04:00 +11°C° 0.1 mm 1 mps 762 mmHg 88%
    05:00 +10°C° 0 mm 1 mps 762 mmHg 87%
    06:00 +10°C° 0 mm 1 mps 762 mmHg 87%
    07:00 +10°C° 0 mm 1 mps 762 mmHg 87%
    08:00 +11°C° 0 mm 1 mps 762 mmHg 82%
    09:00 +12°C° 0 mm 1 mps 762 mmHg 78%
    10:00 +13°C° 0 mm 1 mps 763 mmHg 74%
    11:00 +14°C° 0 mm 1 mps 762 mmHg 72%
    12:00 +14°C° 0 mm 2 mps 762 mmHg 69%
    13:00 +14°C° 0 mm 2 mps 762 mmHg 67%
    14:00 +14°C° 0 mm 2 mps 761 mmHg 68%
    15:00 +14°C° 0 mm 2 mps 761 mmHg 70%
    16:00 +14°C° 0 mm 2 mps 761 mmHg 71%
    17:00 +13°C° 0 mm 2 mps 761 mmHg 74%
    18:00 +12°C° 0 mm 2 mps 762 mmHg 77%
    19:00 +10°C° 0 mm 3 mps 762 mmHg 80%
    20:00 +10°C° 0 mm 3 mps 762 mmHg 80%
    21:00 +10°C° 0 mm 3 mps 762 mmHg 80%
    22:00 +8°C° 0 mm 4 mps 762 mmHg 80%
    23:00 +8°C° 0 mm 4 mps 762 mmHg 80%

    29 January, Wednesday

    Time Temperature Precipitation Wind Pressure Humidity
    00:00 +8°C° 0 mm 4 mps 762 mmHg 80%
    01:00 +8°C° 0 mm 4 mps 762 mmHg 80%
    02:00 +8°C° 0 mm 4 mps 762 mmHg 80%
    03:00 +8°C° 0 mm 4 mps 762 mmHg 80%
    04:00 +8°C° 0 mm 4 mps 762 mmHg 80%
    05:00 +10°C° 0 mm 4 mps 762 mmHg 80%
    06:00 +10°C° 0 mm 4 mps 762 mmHg 80%
    07:00 +10°C° 0 mm 4 mps 762 mmHg 79%
    08:00 +10°C° 0 mm 5 mps 762 mmHg 76%
    09:00 +13°C° 0 mm 5 mps 762 mmHg 73%
    10:00 +14°C° 0 mm 5 mps 762 mmHg 69%
    11:00 +15°C° 0 mm 5 mps 761 mmHg 66%
    12:00 +15°C° 0 mm 5 mps 761 mmHg 63%
    13:00 +16°C° 0 mm 6 mps 760 mmHg 60%
    14:00 +16°C° 0 mm 6 mps 760 mmHg 64%
    15:00 +15°C° 0 mm 6 mps 760 mmHg 67%
    16:00 +15°C° 0 mm 6 mps 760 mmHg 70%
    17:00 +14°C° 0 mm 5 mps 760 mmHg 74%
    18:00 +13°C° 0 mm 5 mps 761 mmHg 77%
    19:00 +12°C° 0 mm 5 mps 761 mmHg 81%
    20:00 +12°C° 0 mm 5 mps 761 mmHg 81%
    21:00 +12°C° 0 mm 5 mps 761 mmHg 82%
    22:00 +10°C° 0 mm 5 mps 761 mmHg 82%
    23:00 +10°C° 0.1 mm 5 mps 761 mmHg 82%
    Show more